Location: Newark
(34.9500°N, 139.9667°E)
Time: 09:24:32
(UTC+00:00)

Transit 4A - Pass Details

Date: 06 December 2019
Orbit: 872 x 973 km, 66.8° (Epoch: 25 January)

Event Time Altitude Azimuth Distance (km) Brightness Sun altitude
Rises 09:05:52 0° 230° (SW) 3,620 12.1 -19.5°
Reaches altitude 10° 09:08:40 10° 239° (WSW) 2,665 11.4 -20.1°
Maximum altitude 09:14:17 35° 304° (WNW) 1,454 9.3 -21.2°
Drops below altitude 10° 09:19:49 10° 9° (N) 2,612 10.0 -22.3°
Enters shadow 09:20:03 - 10° (N) 2,686 10.1 -22.3°
